{"data":{"norad_id":67339,"epoch":"2026-05-25T00:02:01.044672Z","epoch_age_seconds":68727,"freshness":"FRESH","line1":"1 67339U 26003F   26145.00140098  .00015242  00000+0  56208-3 0  9996","line2":"2 67339  43.0011 156.1992 0001507 275.9770  84.0910 15.27591006 20495","mean_motion":15.27591006,"eccentricity":0.0001507,"inclination_deg":43.0011,"raan_deg":156.1992,"arg_perigee_deg":275.977,"mean_anomaly_deg":84.091,"bstar":0.00056208,"rev_number":2049,"period_min":94.26606953982,"perigee_km":481.98216453589,"apogee_km":484.05011609238,"semimajor_km":6861.1531403141,"source":"CELESTRAK","updated_at":"2026-05-25T13:38:21.522814Z"}}